TimeCST,TemperatureF,Dew PointF,Humidity,Sea Level PressureIn,VisibilityMPH,Wind Direction,Wind SpeedMPH,Gust SpeedMPH,PrecipitationIn,Events,Conditions,WindDirDegrees,DateUTC
12:00 AM,69,54,48,29.87,12,NE,3.5,,,,,40,2014-03-11 06:00:00
12:00 AM,68.0,53.6,60,30.02,-9999.0,NE,3.5,-,N/A,,Clear,40,2014-03-11 06:00:00
1:00 AM,68.0,53.6,60,30.00,-9999.0,Calm,Calm,-,N/A,,Clear,0,2014-03-11 07:00:00
2:00 AM,66.2,55.4,68,29.98,-9999.0,NE,5.8,-,N/A,,Clear,40,2014-03-11 08:00:00
3:00 AM,65,54,60,29.82,12,NE,8.1,,,,,50,2014-03-11 09:00:00
3:00 AM,64.4,55.4,73,29.97,-9999.0,NE,8.1,-,N/A,,Clear,50,2014-03-11 09:00:00
4:00 AM,66.2,55.4,68,29.97,-9999.0,NE,8.1,-,N/A,,Clear,40,2014-03-11 10:00:00
5:00 AM,64.4,53.6,68,29.98,-9999.0,NE,5.8,-,N/A,,Clear,50,2014-03-11 11:00:00
6:00 AM,65,54,60,29.87,12,ENE,8.1,,,,Clear,70,2014-03-11 12:00:00
6:00 AM,64.4,53.6,68,29.99,-9999.0,ENE,8.1,-,N/A,,Clear,70,2014-03-11 12:00:00
7:00 AM,69.8,53.6,56,30.00,-9999.0,ESE,13.8,-,N/A,,Clear,110,2014-03-11 13:00:00
8:00 AM,75.2,51.8,44,30.02,-9999.0,ESE,13.8,-,N/A,,Clear,110,2014-03-11 14:00:00
9:00 AM,79,52,28,29.88,12,ESE,11.5,,,,Clear,110,2014-03-11 15:00:00
9:00 AM,78.8,51.8,39,30.03,-9999.0,ESE,11.5,23.0,N/A,,Clear,110,2014-03-11 15:00:00
10:00 AM,82.4,50.0,32,30.03,-9999.0,ESE,12.7,-,N/A,,Clear,110,2014-03-11 16:00:00
11:00 AM,84.2,50.0,30,30.00,6.2,ESE,8.1,-,N/A,,Partly Cloudy,110,2014-03-11 17:00:00
12:00 PM,87,50,19,29.80,12,South,6.9,,,,Partly Cloudy,170,2014-03-11 18:00:00
12:00 PM,87.8,50.0,27,29.98,6.2,South,6.9,-,N/A,,Scattered Clouds,170,2014-03-11 18:00:00
1:00 PM,82.4,60.8,48,29.95,6.2,WSW,12.7,-,N/A,,Scattered Clouds,250,2014-03-11 19:00:00
2:00 PM,84.2,59.0,42,29.92,6.2,WSW,16.1,-,N/A,,Scattered Clouds,240,2014-03-11 20:00:00
3:00 PM,81,63,44,29.77,12,SW,18.4,,,,Partly Cloudy,230,2014-03-11 21:00:00
3:00 PM,80.6,62.6,54,29.91,6.2,SW,18.4,-,N/A,,Scattered Clouds,230,2014-03-11 21:00:00
4:00 PM,78.8,62.6,57,29.92,6.2,SW,17.3,-,N/A,,Scattered Clouds,230,2014-03-11 22:00:00
5:00 PM,75.2,62.6,65,29.93,6.2,WSW,15.0,-,N/A,,Mostly Cloudy,240,2014-03-11 23:00:00
6:00 PM,73,62,59,29.83,12,SW,10.4,,,,Mostly Cloudy,230,2014-03-12 00:00:00
6:00 PM,73.4,62.6,69,29.95,6.2,SW,10.4,-,N/A,,Mostly Cloudy,230,2014-03-12 00:00:00
7:00 PM,71.6,62.6,73,29.98,6.2,SW,10.4,-,N/A,,Scattered Clouds,230,2014-03-12 01:00:00
8:00 PM,69.8,59.0,68,30.00,6.2,ESE,4.6,-,N/A,,Partly Cloudy,120,2014-03-12 02:00:00
9:00 PM,69,59,62,29.87,12,East,4.6,,,,,90,2014-03-12 03:00:00
9:00 PM,69.8,59.0,68,30.02,-9999.0,East,4.6,-,N/A,,Clear,90,2014-03-12 03:00:00
10:00 PM,68.0,59.0,73,30.02,-9999.0,ENE,4.6,-,N/A,,Clear,70,2014-03-12 04:00:00
11:00 PM,68.0,57.2,68,30.01,-9999.0,ENE,9.2,-,N/A,,Clear,70,2014-03-12 05:00:00